User: anonymous   Login
Location: Mentone
(34.5413°N, 85.5351°W)
Time: 08:45:41
(UTC-06:00)
Language:

Okean O Rocket - Orbit

View from above orbital plane
View from above orbital plane
View from above satellite
View from above satellite

Ground track
Ground track

The orbit data is extracted from the following two-line orbital elements,

1 25861U 99039B   15031.88840161  .00000496  00000-0  75896-4 0  8568
2 25861 097.9840 353.1769 0015423 002.8673 054.5729 14.77986592837644
Epoch (UTC): 31 January 2015 21:19:17
Eccentricity: 0.0015423
inclination: 97.9840°
perigee height: 625 km
apogee height: 646 km
right ascension of ascending node: 353.1769°
argument of perigee: 2.8673°
revolutions per day: 14.77986592
mean anomaly at epoch: 54.5729°
orbit number at epoch: 83764

The dashed part of the orbit path shows where the satellite is in the earth's shadow,  

DLR